Regional Weather Roundup
Issued by NWS

Home | Current Version | Previous Version | Graphics & Text | Print | Product List | Glossary On
Versions: 1 2 3 4 5 6 7 8 9 10 11 12 13 14 15 16 17 18 19 20 21 22 23 24 25 26 27 28 29 30 31 32 33 34 35 36 37 38 39 40 41 42 43 44 45 46 47 48 49 50
000
ASUS43 KLSX 292207
RWRMO

WEATHER SUMMARY FOR MISSOURI
NATIONAL WEATHER SERVICE SPRINGFIELD MO
500 PM CDT MON SEP 29 2014

NOTE: "FAIR" INDICATES FEW OR NO CLOUDS BELOW 12,000 FEET WITH NO
       SIGNIFICANT WEATHER AND/OR OBSTRUCTIONS TO VISIBILITY.
       CURRENT SKY AND/OR WEATHER CONDITIONS ARE NOT AVAILABLE FOR
       CHILLICOTHE AND FARMINGTON.

MOZ001>031-035>038-043-044-053-054-292300-
...NORTHERN AND WESTERN MISSOURI...

CITY           SKY/WX    TMP DP  RH WIND       PRES   REMARKS
KANSAS CTY INT MOSUNNY   81  58  45 CALM      29.98F
KANSAS C DTWN  SUNNY     85  58  39 S3        29.96F
LEE`S SUMMIT   SUNNY     83  57  41 CALM      29.98F
ST JOSEPH      MOSUNNY   85  55  35 S6        29.96F
CHILLICOTHE      N/A     80  61  52 CALM      29.98F
KIRKSVILLE     SUNNY     82  57  42 W5        30.00S

$$
MOZ066>068-077>081-088>096-101>105-292300-
...SOUTHWEST MISSOURI...

CITY           SKY/WX    TMP DP  RH WIND       PRES   REMARKS
SPRINGFIELD    SUNNY     83  55  38 NE7       29.98F
JOPLIN         SUNNY     80  59  48 S3        29.98F

$$
MOZ032>034-039>042-045>050-055>058-069>072-292300-
...CENTRAL MISSOURI...

CITY           SKY/WX    TMP DP  RH WIND       PRES   REMARKS
COLUMBIA       SUNNY     83  56  39 W5        29.98F
JEFFERSON CITY SUNNY     83  54  36 SW3       29.96F
ROLLA          MOSUNNY   82  52  35 NE5       29.98F
SEDALIA        SUNNY     85  54  34 CALM      29.98F
WHITEMAN AFB   MOSUNNY   83  56  39 NW6       29.97F
OSAGE BEACH    SUNNY     84  55  37 N3        29.98F

$$
MOZ051-052-059>065-292300-
...EAST CENTRAL MISSOURI...

CITY           SKY/WX    TMP DP  RH WIND       PRES   REMARKS
ST LOUIS INTL  MOSUNNY   86  55  34 W8        29.97F
SPIRIT OF STL  MOSUNNY   84  56  38 W6        29.96F
ST CHARLES     SUNNY     84  54  35 NW7       29.96F HAZE

$$
MOZ072>076-082>087-097>100-106>115-292300-
...SOUTH CENTRAL AND SOUTHEAST MISSOURI...

CITY           SKY/WX    TMP DP  RH WIND       PRES   REMARKS
CAPE GIRARDEAU SUNNY     85  55  35 E7        29.94F
FARMINGTON     SUNNY     82  52  34 N6        29.99F
POPLAR BLUFF   SUNNY     86  50  28 W5        29.94F
WEST PLAINS    CLOUDY    82  58  43 S8        29.99F

$$


USA.gov is the U.S. government's official web portal to all federal, state and local government web resources and services.